This is the latest recevied weather packets stored in our database for station/object KC5EZZ-2. If no packets are shown the sender has not sent any weather packets the latest 10 day(s).
| Time | Temp. | Humidity | Pressure | Rain* | Wind** | Luminosity | Snow |
|---|---|---|---|---|---|---|---|
| 1777376172 | 24.44° C | - | - | 0 mm | 2.24 m/s, 198° | - | - |
| 1777375872 | 24.44° C | - | - | 0 mm | 3.13 m/s, 177° | - | - |
| 1777375570 | 24.44° C | - | - | 0 mm | 2.68 m/s, 186° | - | - |
| 1777375270 | 24.44° C | - | - | 0 mm | 4.02 m/s, 172° | - | - |
| 1777375008 | 24.44° C | - | - | 0 mm | 2.68 m/s, 198° | - | - |
| 1777374971 | 24.44° C | - | - | 0 mm | 2.68 m/s, 198° | - | - |
| 1777374668 | 24.44° C | - | - | 0 mm | 3.13 m/s, 187° | - | - |
| 1777374369 | 24.44° C | - | - | 0 mm | 3.13 m/s, 166° | - | - |
| 1777374069 | 24.44° C | - | - | 0 mm | 3.58 m/s, 162° | - | - |
| 1777373767 | 24.44° C | - | - | 0 mm | 3.13 m/s, 155° | - | - |
| 1777373467 | 24.44° C | - | - | 0 mm | 4.02 m/s, 177° | - | - |
| 1777373167 | 24.44° C | - | - | 0 mm | 3.58 m/s, 169° | - | - |
| 1777372865 | 24.44° C | - | - | 0 mm | 3.58 m/s, 183° | - | - |
| 1777372565 | 24.44° C | - | - | 0 mm | 3.13 m/s, 155° | - | - |
| 1777372265 | 23.89° C | - | - | 0 mm | 3.58 m/s, 193° | - | - |
| 1777371963 | 24.44° C | - | - | 0 mm | 3.13 m/s, 166° | - | - |
| 1777371662 | 24.44° C | - | - | 0 mm | 3.58 m/s, 179° | - | - |
| 1777371362 | 24.44° C | - | - | 0 mm | 3.13 m/s, 187° | - | - |
| 1777371060 | 23.89° C | - | - | 0 mm | 3.13 m/s, 198° | - | - |
| 1777370760 | 24.44° C | - | - | 0 mm | 3.13 m/s, 176° | - | - |
| 1777370461 | 24.44° C | - | - | 0 mm | 3.13 m/s, 169° | - | - |
| 1777370158 | 23.89° C | - | - | 0 mm | 3.13 m/s, 177° | - | - |
| 1777369859 | 24.44° C | - | - | 0 mm | 2.68 m/s, 173° | - | - |
| 1777369559 | 24.44° C | - | - | 0 mm | 4.02 m/s, 195° | - | - |
| 1777369257 | 24.44° C | - | - | 0 mm | 3.58 m/s, 194° | - | - |
* Rain latest hour (hover to see other rain measurements)
** Current wind speed in m/s (hover to see current wind gust speed)